Weather History for KSDY - February, 2014

Change the Weather History Date:

Monday, February 10, 2014

  Actual Average Record
Temperature  
Mean Temperature 2 °F -  
Max Temperature 19 °F 27 °F 55 °F (2005)
Min Temperature -14 °F 7 °F -30 °F (1955)
Degree Days  
Heating Degree Days 62    
Moisture  
Dew Point -5 °F    
Average Humidity 70    
Maximum Humidity 100    
Minimum Humidity 41    
Precipitation  
Precipitation 0.00 in - - ()
Sea Level Pressure  
Sea Level Pressure 30.18 in    
Wind  
Wind Speed 3 mph (SSW)    
Max Wind Speed 12 mph    
Max Gust Speed -    
Visibility 10 miles    
Events      
Averages and records for this station are not official NWS values.
T = Trace of Precipitation, MM = Missing Value Source: NWS Daily Summary

Daily Weather History Graph

Daily Weather History Graph

Search for Another Location

Airport or City:

Trip Planner

Search our weather history database for the weather conditions in past years. The results will help you decide how hot, cold, wet, or windy it might be!

Date:

Astronomy

Feb. 10, 2014 Rise Set
Actual Time 7:10 AM MST 5:12 PM MST
Civil Twilight 6:38 AM MST 5:44 PM MST
Nautical Twilight 6:02 AM MST 6:20 PM MST
Astronomical Twilight 5:26 AM MST 6:56 PM MST
Moon 1:36 PM MST (2/10) 4:13 AM MST (2/10)
Length of Visible Light 11h 06m
Length of Day
10h 01m
Waxing Gibbous, 85% of the Moon is Illuminated
Feb 10
Waxing Gibbous
Feb 14
Full
Feb 22
Last Quarter
Mar 1
New
Mar 8
First Quarter

Hourly Weather History & Observations

Time (MST) Temp. Windchill Dew Point Humidity Pressure Visibility Wind Dir Wind Speed Gust Speed Precip Events Conditions
12:15 AM -11.2 °F - -20.2 °F 64% 30.31 in 10.0 mi Calm Calm - N/A   Clear
12:35 AM -11.2 °F -20.6 °F -11.2 °F 100% 30.30 in 10.0 mi NNW 3.5 mph - N/A   Clear
12:55 AM -11.2 °F -20.6 °F -20.2 °F 64% 30.31 in 10.0 mi NNW 3.5 mph - N/A   Clear
1:15 AM -11.2 °F - -11.2 °F 100% 30.30 in 10.0 mi Calm Calm - N/A   Clear
1:35 AM -11.2 °F - -22.0 °F 59% 30.30 in 10.0 mi Calm Calm - N/A   Clear
1:55 AM -11.2 °F - -11.2 °F 100% 30.30 in 10.0 mi Calm Calm - N/A   Clear
2:15 AM -11.2 °F - -25.6 °F 49% 30.30 in 10.0 mi Calm Calm - N/A   Clear
2:55 AM -14.8 °F - -14.8 °F 100% 30.29 in 10.0 mi Calm Calm - N/A   Clear
3:15 AM -14.8 °F - -25.6 °F 58% 30.29 in 10.0 mi Calm Calm - N/A   Clear
3:35 AM -14.8 °F - - N/A% 30.28 in 10.0 mi Calm Calm - N/A   Clear
3:55 AM -14.8 °F - -27.4 °F 53% 30.27 in 10.0 mi Calm Calm - N/A   Clear
4:15 AM -11.2 °F -23.0 °F -11.2 °F 100% 30.27 in 10.0 mi North 4.6 mph - N/A   Clear
4:35 AM -11.2 °F -20.6 °F - N/A% 30.26 in 10.0 mi NNW 3.5 mph - N/A   Clear
4:55 AM -11.2 °F -20.6 °F -16.6 °F 77% 30.27 in 10.0 mi NNW 3.5 mph - N/A   Scattered Clouds
5:15 AM -9.4 °F - -16.6 °F 71% 30.27 in 10.0 mi Calm Calm - N/A   Mostly Cloudy
5:35 AM -11.2 °F -20.6 °F -23.8 °F 54% 30.27 in 10.0 mi NNW 3.5 mph - N/A   Partly Cloudy
5:55 AM -11.2 °F -20.6 °F - N/A% 30.26 in 10.0 mi NNW 3.5 mph - N/A   Scattered Clouds
6:15 AM -9.4 °F -18.6 °F -25.6 °F 45% 30.25 in 10.0 mi North 3.5 mph - N/A   Mostly Cloudy
6:35 AM -9.4 °F -20.9 °F - N/A% 30.25 in 10.0 mi North 4.6 mph - N/A   Overcast
6:55 AM -9.4 °F -20.9 °F -27.4 °F 41% 30.25 in 10.0 mi North 4.6 mph - N/A   Partly Cloudy
7:15 AM -9.4 °F -20.9 °F - N/A% 30.25 in 9.0 mi NNE 4.6 mph - N/A   Clear
7:55 AM -7.6 °F -18.8 °F -7.6 °F 100% 30.25 in 8.0 mi North 4.6 mph - N/A   Clear
8:15 AM -7.6 °F - -25.6 °F 41% 30.25 in 10.0 mi Calm Calm - N/A   Clear
8:35 AM -4.0 °F - - N/A% 30.25 in 10.0 mi Calm Calm - N/A   Clear
8:55 AM -2.2 °F -10.4 °F -20.2 °F 42% 30.25 in 10.0 mi SSE 3.5 mph - N/A   Clear
9:15 AM -0.4 °F - -0.4 °F 100% 30.25 in 10.0 mi Calm Calm - N/A   Clear
9:35 AM 1.4 °F -8.3 °F -7.6 °F 66% 30.25 in 10.0 mi South 4.6 mph - N/A   Clear
9:55 AM 1.4 °F - -9.4 °F 61% 30.25 in 10.0 mi Calm Calm - N/A   Clear
10:35 AM 5.0 °F -2.1 °F -2.2 °F 72% 30.24 in 10.0 mi SSE 3.5 mph - N/A   Clear
10:55 AM 6.8 °F - -2.2 °F 67% 30.24 in 10.0 mi Calm Calm - N/A   Clear
11:15 AM 8.6 °F 0.1 °F 1.4 °F 73% 30.23 in 10.0 mi South 4.6 mph - N/A   Clear
11:35 AM 10.4 °F 0.8 °F 1.4 °F 67% 30.23 in 10.0 mi South 5.8 mph - N/A   Clear
11:55 AM 12.2 °F 2.9 °F 1.4 °F 62% 30.22 in 10.0 mi South 5.8 mph - N/A   Clear
12:15 PM 12.2 °F 4.3 °F 1.4 °F 62% 30.21 in 10.0 mi South 4.6 mph - N/A   Clear
12:35 PM 15.8 °F 7.2 °F 5.0 °F 62% 30.20 in 10.0 mi South 5.8 mph - N/A   Clear
12:55 PM 17.6 °F 7.3 °F 5.0 °F 58% 30.19 in 10.0 mi South 8.1 mph - N/A   Clear
1:15 PM 17.6 °F 7.3 °F 5.0 °F 58% 30.18 in 10.0 mi South 8.1 mph - N/A   Clear
1:35 PM 17.6 °F 8.2 °F 3.2 °F 53% 30.17 in 10.0 mi SSW 6.9 mph - N/A   Clear
1:55 PM 19.4 °F 9.5 °F 6.8 °F 58% 30.17 in 10.0 mi SSW 8.1 mph - N/A   Clear
2:15 PM 19.4 °F 12.8 °F 6.8 °F 58% 30.16 in 10.0 mi SSW 4.6 mph - N/A   Clear
2:35 PM 19.4 °F 10.4 °F 6.8 °F 58% 30.16 in 10.0 mi SSW 6.9 mph - N/A   Clear
3:15 PM 19.4 °F 8.6 °F 6.8 °F 58% 30.15 in 10.0 mi South 9.2 mph - N/A   Clear
3:35 PM 19.4 °F 8.6 °F 5.0 °F 54% 30.15 in 10.0 mi South 9.2 mph - N/A   Clear
3:55 PM 19.4 °F 8.6 °F 5.0 °F 54% 30.14 in 10.0 mi SSW 9.2 mph - N/A   Clear
4:15 PM 19.4 °F 7.9 °F 5.0 °F 54% 30.14 in 10.0 mi SSW 10.4 mph - N/A   Clear
4:35 PM 17.6 °F 5.7 °F 5.0 °F 58% 30.14 in 10.0 mi SSW 10.4 mph - N/A   Clear
4:55 PM 15.8 °F 5.1 °F 3.2 °F 58% 30.14 in 10.0 mi SW 8.1 mph - N/A   Clear
5:15 PM 12.2 °F 1.7 °F 3.2 °F 67% 30.13 in 10.0 mi SW 6.9 mph - N/A   Clear
5:35 PM 12.2 °F 2.9 °F 5.0 °F 73% 30.13 in 10.0 mi SW 5.8 mph - N/A   Clear
5:55 PM 10.4 °F -0.4 °F 3.2 °F 73% 30.12 in 10.0 mi SSW 6.9 mph - N/A   Clear
6:35 PM 8.6 °F -3.7 °F 3.2 °F 79% 30.11 in 10.0 mi SSW 8.1 mph - N/A   Clear
6:55 PM 6.8 °F -2.0 °F 1.4 °F 79% 30.11 in 10.0 mi SSW 4.6 mph - N/A   Clear
7:15 PM 6.8 °F -3.5 °F -0.4 °F 72% 30.09 in 10.0 mi SSW 5.8 mph - N/A   Clear
7:35 PM 6.8 °F -3.5 °F 1.4 °F 79% 30.08 in 10.0 mi South 5.8 mph - N/A   Clear
7:55 PM 6.8 °F -2.0 °F 1.4 °F 79% 30.07 in 10.0 mi South 4.6 mph - N/A   Clear
8:15 PM 5.0 °F -4.1 °F -0.4 °F 78% 30.06 in 10.0 mi SSW 4.6 mph - N/A   Clear
8:35 PM 3.2 °F -6.2 °F -2.2 °F 78% 30.05 in 10.0 mi SSW 4.6 mph - N/A   Clear
8:55 PM 3.2 °F -7.8 °F 1.4 °F 92% 30.04 in 10.0 mi SSW 5.8 mph - N/A   Clear
9:15 PM 3.2 °F -9.1 °F -5.8 °F 66% 30.03 in 10.0 mi South 6.9 mph - N/A   Clear
9:35 PM 3.2 °F -11.3 °F -0.4 °F 85% 30.02 in 10.0 mi SSW 9.2 mph - N/A   Clear
9:55 PM 3.2 °F - 1.4 °F 92% 30.01 in 10.0 mi Calm Calm - N/A   Clear
10:35 PM 3.2 °F -11.3 °F 1.4 °F 92% 29.99 in 10.0 mi SSW 9.2 mph - N/A   Clear
10:55 PM 5.0 °F -10.8 °F 3.2 °F 92% 29.98 in 10.0 mi SSW 11.5 mph - N/A   Clear
11:15 PM 5.0 °F -10.0 °F 1.4 °F 85% 29.96 in 10.0 mi SSW 10.4 mph - N/A   Clear
11:35 PM 6.8 °F -7.8 °F -2.2 °F 67% 29.95 in 10.0 mi SSW 10.4 mph - N/A   Clear
11:55 PM 6.8 °F -8.6 °F -0.4 °F 72% 29.93 in 10.0 mi SSW 11.5 mph - N/A   Clear